Simultaneous Nadir Overpasses (SNOs) Predictions

Prediction of SNOs between NOAA-19 and TERRA Satellite Orbit:

Table of predicted SNOs for the next 14.0 days since TLE Epoch: 3/13/2012
Index Date (NOAA-19) Time (NOAA-19) NOAA-19 Lat,Lon Date (TERRA) Time (TERRA) TERRA Lat,Lon Distance(km) Time Diff (sec)
1 03/15/2012 07:03:03 68.97, 73.45 03/15/2012 07:03:45 68.96, 73.40 2.32 42
2 03/15/2012 07:54:05 -68.83,-119.13 03/15/2012 07:53:15 -68.84,-119.11 0.98 50
3 03/17/2012 11:47:49 68.90, 2.35 03/17/2012 11:48:02 68.92, 2.28 3.41 13
4 03/17/2012 12:38:47 -68.58, 170.03 03/17/2012 12:37:35 -68.64, 169.56 20.06 72
5 03/19/2012 15:41:38 -69.09, 123.65 03/19/2012 15:42:50 -69.09, 123.78 5.31 72
6 03/19/2012 16:32:36 68.89, -68.83 03/19/2012 16:32:19 68.87, -68.85 2.67 17
7 03/21/2012 20:26:23
